Terminal Aerodrome Forecast
Issued by NWS Norman, OK

Home | Current Version | Previous Version | Text Only | Print | Product List | Glossary On
Versions: 1 2 3 4 5 6 7 8 9 10 11 12 13 14 15 16 17 18 19 20 21 22 23 24 25
000
FTUS44 KOUN 212320
TAFSPS
TAF
KSPS 212320Z 2200/2224 17012KT P6SM BKN250
     FM220900 24009KT P6SM FEW010 BKN150
     FM221300 34012KT P6SM BKN150
     FM221600 33015G22KT P6SM FEW150=

USA.gov is the U.S. government's official web portal to all federal, state and local government web resources and services.